Home > Weather > 's-Hertogenbosch > Past weeks

Flag for Netherlands Past Weather in 's-Hertogenbosch, Netherlands — Yesterday and Last 2 Weeks

Now
57 °F

Passing clouds.


Feels Like: 57 °F
Forecast: 56 / 71 °F
Wind: No wind

Location: Volkel

Current Time: Jul 26, 2016 at 2:53:39 AM

Latest Report: Jul 26, 2016 at 2:25 AM


Visibility: N/A

Pressure: 30.12 "Hg

Humidity: 94%

Dew Point: 55 °F

Location of 's-HertogenboschLocation

Past Weather in 's-Hertogenbosch — Graph

°F

's-Hertogenbosch Temperature Yesterday

Maximum temperature yesterday: 75 °F (at 3:25 PM)
Minimum temperature yesterday: 59 °F (at 2:25 AM)
Average temperature yesterday: 68 °F

High & Low Weather Summary for the Past Weeks

 TemperatureHumidityPressure
High95 °F (Jul 20, 4:55 PM)100% (Jul 13, 4:25 AM)30.27 "Hg (Jul 13, 4:25 AM)
Low46 °F (Jul 14, 5:25 AM)30% (Jul 20, 4:55 PM)29.77 "Hg (Jul 11, 1:55 AM)
Average67 °F76%30.05 "Hg
* Reported Jul 11 1:25 AM — Jul 26 1:25 AM, 's-Hertogenbosch, Weather by CustomWeather, © 2016

Note: Actual official high and low records may vary slightly from our data, if they occured in-between our weather recording intervals... More about our weather records

Advertising

's-Hertogenbosch Weather History for the Previous 24 Hours

Scroll right to see more
 ConditionsComfort  
Time TempWeatherWind HumidityBarometerVisibility
1:25 AM
Tue, Jul 26
59 °FPassing clouds.1 mph94%30.12 "HgN/A
12:55 AM63 °FPassing clouds.2 mph83%30.12 "HgN/A
12:25 AM63 °FPassing clouds.3 mph83%30.12 "HgN/A
11:55 PM
Mon, Jul 25
64 °FMostly cloudy.2 mph78%30.12 "HgN/A
11:25 PM64 °FPassing clouds.3 mph78%30.12 "HgN/A
10:55 PM66 °FOvercast.3 mph73%30.12 "HgN/A
10:25 PM64 °FPartly sunny.3 mph78%30.12 "HgN/A
9:55 PM66 °FScattered clouds.6 mph73%30.09 "HgN/A
9:25 PM66 °FPartly sunny.3 mph73%30.09 "HgN/A
8:55 PM68 °FPassing clouds.3 mph73%30.09 "HgN/A
8:25 PM70 °FOvercast.3 mph73%30.09 "HgN/A
7:55 PM72 °FScattered clouds.5 mph73%30.09 "HgN/A
7:25 PM73 °FPartly sunny.3 mph69%30.07 "HgN/A
6:55 PM73 °FPassing clouds.6 mph69%30.07 "HgN/A
6:25 PM73 °FBroken clouds.5 mph74%30.07 "HgN/A
5:55 PM73 °FBroken clouds.6 mph74%30.09 "HgN/A
5:25 PM73 °FPartly sunny.6 mph78%30.07 "HgN/A
4:55 PM73 °FBroken clouds.7 mph74%30.07 "HgN/A
4:25 PM75 °FMostly cloudy.9 mph69%30.07 "HgN/A
3:55 PM75 °FPartly sunny.10 mph65%30.07 "HgN/A
3:25 PM75 °FScattered clouds.8 mph69%30.09 "HgN/A
2:55 PM73 °FMostly cloudy.9 mph74%30.09 "HgN/A
2:25 PM73 °FOvercast.12 mph74%30.09 "HgN/A
1:55 PM72 °FMostly cloudy.10 mph78%30.09 "HgN/A
1:25 PM70 °FMostly cloudy.7 mph83%30.09 "HgN/A
12:55 PM70 °FMostly cloudy.6 mph83%30.09 "HgN/A
12:25 PM72 °FMore clouds than sun.9 mph78%30.09 "HgN/A
11:55 AM73 °FPartly sunny.10 mph74%30.09 "HgN/A
11:25 AM72 °FMostly cloudy.7 mph78%30.07 "HgN/A
11:03 AM72 °FBroken clouds.7 mph73%30.07 "HgN/A
10:55 AM72 °FPartly sunny.7 mph78%30.07 "HgN/A
10:25 AM68 °FOvercast.10 mph83%30.09 "HgN/A
10:04 AM70 °FMostly cloudy.9 mph78%30.09 "HgN/A
9:55 AM70 °FPartly sunny.8 mph78%30.09 "HgN/A
9:25 AM68 °FPartly sunny.8 mph83%30.07 "HgN/A
8:55 AM66 °FPartly sunny.8 mph83%30.07 "HgN/A
8:25 AM66 °FPartly sunny.7 mph83%30.07 "HgN/A
7:55 AM64 °FPartly sunny.7 mph88%30.07 "HgN/A
7:25 AM64 °FPartly sunny.5 mph94%30.07 "HgN/A
6:55 AM64 °FOvercast.3 mph94%30.07 "HgN/A
6:25 AM63 °FMostly cloudy.3 mph94%30.07 "HgN/A
5:55 AM61 °FMostly cloudy.3 mph100%30.07 "HgN/A
5:25 AM59 °FPartly cloudy.3 mph100%30.07 "HgN/A
4:55 AM59 °FFog.3 mph100%30.07 "Hg5 mi
4:25 AM59 °FFog.2 mph100%30.07 "Hg5 mi
3:56 AM59 °FFog.2 mph100%30.07 "Hg6 mi
3:55 AM59 °FFog.2 mph100%30.07 "Hg4 mi
3:25 AM61 °FFog.3 mph94%30.09 "Hg4 mi
3:03 AM61 °FFog.3 mph94%30.07 "Hg5 mi
2:25 AM59 °FCool.1 mph100%30.07 "HgN/A
Weather by CustomWeather, © 2016

See weather overviewHow to use our weather pages